#timestamp,LO_Frequency,Hit,StdDev 
1552003215.6,286047001.9,N
1552003235.5,286047003.9,N
1552003255.3,286047003.1,N
1552003275.2,286047003.8,N
1552003295.9,286047003.2,N
1552003315.7,286047004.4,Y
1552003335.6,286047000.8,P
1552003355.4,286047000.8,N
1552003375.2,286047002.7,P
1552003395.1,286047001.6,N
1552003396.0,286047001.6,N
1552003415.8,286047002.5,Y
1552003435.7,286046998.8,P
1552003455.5,286046999.2,N
1552003475.3,286046996.5,N
1552003495.2,286046997.4,N
1552003515.0,286046995.1,N
1552003515.9,286046995.1,N
1552003535.7,286046995.8,N
1552003555.6,286046994.1,N
1552003575.4,286046991.7,Y
1552003595.3,286046995.4,P
1552003615.1,286046996.9,P
1552003635.8,286046999.5,N
1552003655.7,286046997.8,N
1552003675.5,286046997.5,N
1552003695.4,286046997.6,N
1552003715.2,286046997.1,N
1552003735.0,286046998.7,N
1552003735.9,286046998.7,N
1552003755.8,286046996.5,Y
1552003775.6,286047000.3,P
1552003795.4,286047000.6,N
1552003815.3,286047000.1,N
1552003835.1,286047001.3,N
1552003855.9,286047002.2,N
1552003875.7,286047001.3,N
1552003895.5,286047004.3,Y
1552003915.4,286047001.4,P
1552003935.2,286047000.1,N
1552003955.1,286046999.9,N
1552003956.0,286046999.9,N
1552003975.8,286047000.4,N
1552003995.6,286047002.4,Y
1552004015.5,286047002.5,P
1552004035.3,286047001.3,N
1552004055.1,286047001.5,N
1552004075.9,286047001.3,N
1552004095.7,286047003.8,Y
1552004115.6,286047002.1,P
1552004135.4,286047000.9,N
1552004155.2,286046997.9,P
1552004175.1,286046993.4,Y
1552004176.0,286046993.4,P
1552004195.8,286046992.2,N
1552004215.7,286046988.8,P
1552004235.5,286046985.5,Y
1552004255.3,286046991.3,P
1552004275.2,286046987.4,P
1552004295.0,286046983.7,P
1552004295.9,286046983.7,Y
1552004315.8,286046997.4,P
1552004335.6,286046996.5,N
1552004355.4,286046997.1,N
1552004375.3,286046995.4,N
1552004395.1,286046997.0,N
1552004415.8,286046999.5,N
1552004435.7,286047001.2,N
1552004455.5,286047001.9,N
1552004475.4,286047004.4,N
1552004495.2,286047006.0,N
1552004515.0,286047006.0,N
1552004515.9,286047006.0,N
1552004535.8,286047004.9,N
1552004555.6,286047007.0,N
1552004575.4,286047006.9,N
1552004595.3,286047006.4,N
1552004615.1,286047007.3,N
1552004635.9,286047008.4,N
1552004655.7,286047007.9,N
1552004675.5,286047009.4,N
1552004695.4,286047011.2,N
1552004715.2,286047011.0,N
1552004735.0,286047009.4,N
1552004735.9,286047009.4,N
1552004755.8,286047011.9,N
1552004775.6,286047009.5,N
1552004795.5,286047011.7,N
1552004815.3,286047009.3,N
1552004835.1,286047012.2,N
1552004855.9,286047012.1,N
1552004875.7,286047012.3,N
1552004895.5,286047012.7,N
1552004915.4,286047012.9,N
1552004935.2,286047015.1,Y
1552004955.1,286047007.3,P
1552004956.0,286047007.3,P
1552004975.8,286047007.4,P
1552004995.6,286047009.1,Y
1552005015.5,286047000.5,P
1552005035.3,286047002.7,N
1552005055.2,286046999.8,N
1552005075.9,286047000.5,N
1552005095.7,286047001.2,N
1552005115.6,286046998.6,N
1552005135.4,286046998.8,N
1552005155.2,286046998.2,N
1552005175.1,286047000.9,N
1552005176.0,286047000.9,N
1552005195.8,286047001.0,N
1552005215.7,286047001.2,N
1552005235.5,286046998.8,N
1552005255.3,286046998.3,N
1552005275.2,286046998.9,N
1552005295.9,286047001.1,N
1552005315.7,286047000.8,N
1552005335.6,286046998.6,N
1552005355.4,286046998.6,N
1552005375.2,286047000.2,N
1552005395.1,286047001.0,N
1552005396.0,286047001.0,N
1552005415.8,286046998.7,N
1552005435.7,286047000.0,N
1552005455.5,286047000.4,N
1552005475.3,286047004.4,N
1552005495.2,286047000.9,N
1552005515.0,286047002.8,N
1552005515.9,286047002.8,N
1552005535.8,286047001.4,N
1552005555.8,286047002.6,N
1552005575.6,286047000.1,N
1552005595.4,286046998.2,N
1552005615.3,286046998.4,N
1552005635.1,286046996.5,N
1552005655.9,286046999.5,N
1552005675.7,286046997.3,N
1552005695.5,286046999.6,N
1552005715.4,286046997.2,N
1552005735.2,286046996.8,N
1552005755.0,286046997.4,N
1552005755.9,286046997.4,N
1552005775.8,286046997.9,N
1552005795.6,286046997.5,N
1552005815.5,286046996.6,N
1552005835.3,286046998.5,N
1552005855.1,286046999.2,N
1552005875.9,286046998.8,N
1552005895.7,286047001.2,N
1552005915.6,286047000.6,N
1552005935.4,286046999.9,N
1552005955.2,286046999.9,N
1552005975.1,286046998.1,N
1552005976.0,286046998.1,N
1552005995.8,286047001.0,N
1552006015.6,286046998.1,N
1552006035.5,286046999.0,N
1552006055.3,286046998.4,N
1552006075.2,286046998.9,N
1552006095.9,286046999.8,N
1552006115.7,286047000.6,N
1552006135.6,286047001.1,N
1552006155.4,286046998.3,N
1552006175.2,286047002.2,N
1552006195.1,286047001.5,N
1552006196.0,286047001.5,N
1552006215.8,286047002.0,N
1552006235.7,286047001.4,N
1552006255.5,286047003.6,N
1552006275.3,286047003.3,N
1552006295.2,286047004.0,N
1552006315.0,286047003.1,N
1552006315.9,286047003.1,N
1552006335.7,286047005.6,N
1552006355.6,286047004.1,N
1552006375.4,286047001.3,N
1552006395.3,286047002.6,N
1552006415.1,286047002.1,N
1552006435.8,286047002.4,N
1552006455.7,286047002.7,N
1552006475.5,286047002.2,N
1552006495.4,286047004.2,N
1552006515.2,286047003.2,N
1552006535.0,286047007.1,Y
1552006535.9,286047007.1,P
1552006555.8,286047005.6,N
1552006575.6,286047005.1,N
1552006595.4,286047004.5,N
1552006615.3,286047004.5,N
1552006635.1,286047004.6,N
1552006655.9,286047007.0,Y
1552006675.7,286047001.5,P
1552006695.5,286047002.5,N
1552006715.4,286047002.0,N
1552006735.2,286047000.4,N
1552006755.1,286047000.8,N
1552006756.0,286047000.8,N
1552006775.8,286046998.2,N
1552006795.6,286046998.7,N
